logo tempoitalia

Diretta Meteo Catania-Fontanarossa, Italiamercoledì 12 maggio ore 06:50

Mappa
Sereno 14 °C Sereno 24 Ore: T.min 13 T.max 25
Ponente Sud-Ovest Km/h 7.4 Punto di rugiada: 12 °C Umidità: 87% Visibilità: 10 Km
Il sole sorge alle: 05:51 Il sole tramonta alle: 20:00
12 Maggio 2021 06:50 tempo osservato: Sereno Sereno 14 87 1012 vento: Nord SO 7.4
12 Maggio 2021 06:20 tempo osservato: Sereno Sereno 14 93 1012 vento: Nord O/NO 9.3
12 Maggio 2021 05:20 tempo osservato: Sereno Sereno 13 87 1012 vento: Nord O 11.1
12 Maggio 2021 04:50 tempo osservato: Sereno Sereno 14 87 1012 vento: Nord O 7.4
12 Maggio 2021 04:20 tempo osservato: Sereno Sereno 13 93 1012 vento: Nord O/SO 11.1
12 Maggio 2021 03:50 tempo osservato: Sereno Sereno 14 93 1012 vento: Nord S/SO 11.1
12 Maggio 2021 03:20 tempo osservato: Sereno Sereno 14 93 1012 vento: Nord S/SO 7.4
12 Maggio 2021 02:50 tempo osservato: Sereno Sereno 15 93 1012 vento: Nord N 5.5
12 Maggio 2021 02:20 tempo osservato: Sereno Sereno 16 87 1012 vento: Nord O/SO 11.1
12 Maggio 2021 01:50 tempo osservato: Sereno Sereno 15 87 1013 vento: Nord O 13
12 Maggio 2021 01:20 tempo osservato: Sereno Sereno 14 93 1013 vento: Nord O 11.1
12 Maggio 2021 00:50 tempo osservato: Sereno Sereno 15 87 1013 vento: Nord O 7.4
12 Maggio 2021 00:20 tempo osservato: Sereno Sereno 16 93 1014 vento: Nord N 3.7
11 Maggio 2021 23:50 tempo osservato: Sereno Sereno 17 88 1014 vento: Nord N 3.7
11 Maggio 2021 23:20 tempo osservato: Sereno Sereno 16 93 1014 vento: Nord N 5.5
11 Maggio 2021 22:50 tempo osservato: Sereno Sereno 16 93 1014 vento: Nord O 9.3
11 Maggio 2021 22:20 tempo osservato: Sereno Sereno 17 88 1014 vento: Nord O 13
11 Maggio 2021 21:50 tempo osservato: Sereno Sereno 17 82 1014 vento: Nord O 9.3
11 Maggio 2021 21:20 tempo osservato: Sereno Sereno 18 88 1013 vento: Nord N 5.5
11 Maggio 2021 20:20 tempo osservato: Poco Nuvoloso Poco Nuvoloso 19 82 1013 vento: Nord NE 20.3
11 Maggio 2021 19:50 tempo osservato: Sereno Sereno 20 77 1013 vento: Nord NE 20.3
11 Maggio 2021 19:20 tempo osservato: Sereno Sereno 20 72 1013 vento: Nord NE 20.3
11 Maggio 2021 18:50 tempo osservato: Sereno Sereno 21 68 1013 vento: Nord NE 24
11 Maggio 2021 18:20 tempo osservato: Sereno Sereno 21 68 1012 vento: Nord NE 25.9
11 Maggio 2021 17:50 tempo osservato: Sereno Sereno 21 68 1013 vento: Nord NE 27.8
11 Maggio 2021 17:20 tempo osservato: Sereno Sereno 22 64 1013 vento: Nord NE 27.8
11 Maggio 2021 16:50 tempo osservato: Sereno Sereno 22 68 1013 vento: Nord NE 25.9
11 Maggio 2021 16:20 tempo osservato: Sereno Sereno 23 64 1013 vento: Nord NE 24
11 Maggio 2021 15:50 tempo osservato: Sereno Sereno 23 64 1013 vento: Nord NE 20.3
11 Maggio 2021 15:20 tempo osservato: Sereno Sereno 22 68 1013 vento: Nord NE 16.7
11 Maggio 2021 14:50 tempo osservato: Sereno Sereno 24 64 1013 vento: Nord E/SE 18.5
11 Maggio 2021 14:20 tempo osservato: Sereno Sereno 23 68 1014 vento: Nord E/SE 22.2
11 Maggio 2021 13:50 tempo osservato: Sereno Sereno 23 64 1014 vento: Nord E/SE 24
11 Maggio 2021 13:20 tempo osservato: Sereno Sereno 24 60 1014 vento: Nord E/SE 24
11 Maggio 2021 12:50 tempo osservato: Sereno Sereno 24 60 1014 vento: Nord E/SE 22.2
11 Maggio 2021 12:20 tempo osservato: Sereno Sereno 24 57 1014 vento: Nord SE 20.3
11 Maggio 2021 11:50 tempo osservato: Sereno Sereno 24 60 1015 vento: Nord E/SE 20.3
11 Maggio 2021 11:20 tempo osservato: Sereno Sereno 24 57 1015 vento: Nord SE 18.5
11 Maggio 2021 10:50 tempo osservato: Sereno Sereno 25 50 1015 vento: Nord S 7.4
11 Maggio 2021 10:20 tempo osservato: Sereno Sereno 24 50 1015 vento: Nord S/SO 11.1
11 Maggio 2021 09:50 tempo osservato: Sereno Sereno 23 56 1015 vento: Nord S/SO 11.1
11 Maggio 2021 09:20 tempo osservato: Sereno Sereno 21 64 1015 vento: Nord SO 13
11 Maggio 2021 08:50 tempo osservato: Sereno Sereno 20 72 1015 vento: Nord SO 13
11 Maggio 2021 08:20 tempo osservato: Sereno Sereno 19 77 1015 vento: Nord O/SO 13